ПОПОВИ ЛИВАДИ - външен Measurements

Back to Overview

Timestamp Temperature Humidity
2/25/2021 4:44:57 AM -0,9 C 81.7%
2/25/2021 4:37:54 AM -0,6 C 81.0%
2/25/2021 4:30:53 AM -0,5 C 81.1%
2/25/2021 4:23:51 AM -0,8 C 81.8%
2/25/2021 4:16:49 AM -0,8 C 81.9%
2/25/2021 4:09:48 AM -0,9 C 82.4%
2/25/2021 4:02:46 AM -0,9 C 83.1%
2/25/2021 3:55:45 AM -0,9 C 83.0%
2/25/2021 3:48:43 AM -0,8 C 83.0%
2/25/2021 3:41:41 AM -0,8 C 82.9%
2/25/2021 3:34:39 AM -0,8 C 83.2%
2/25/2021 3:27:38 AM -0,9 C 83.7%
2/25/2021 3:20:36 AM -0,8 C 83.7%
2/25/2021 3:13:35 AM -0,6 C 83.6%
2/25/2021 3:06:33 AM -0,6 C 83.6%
2/25/2021 2:59:31 AM -0,6 C 83.7%
2/25/2021 2:52:30 AM -0,7 C 83.9%
2/25/2021 2:45:27 AM -0,7 C 84.0%
2/25/2021 2:38:26 AM -0,7 C 84.1%
2/25/2021 2:31:24 AM -0,6 C 83.7%
2/25/2021 2:24:22 AM -0,5 C 83.6%
2/25/2021 2:17:20 AM -0,6 C 83.9%
2/25/2021 2:10:18 AM -0,5 C 83.7%
2/25/2021 2:03:17 AM -0,5 C 83.7%
2/25/2021 1:56:15 AM -0,5 C 83.4%
2/25/2021 1:49:12 AM -0,3 C 83.0%
2/25/2021 1:42:11 AM -0,3 C 83.0%
2/25/2021 1:35:08 AM -0,3 C 83.1%
2/25/2021 1:28:07 AM -0,2 C 83.1%
2/25/2021 1:21:05 AM -0,2 C 83.3%
2/25/2021 1:14:03 AM -0,1 C 83.3%
2/25/2021 1:07:01 AM 0,0 C 83.3%
2/25/2021 12:59:59 AM 0,0 C 83.2%
2/25/2021 12:52:58 AM 0,0 C 83.4%
2/25/2021 12:45:56 AM 0,0 C 83.4%
2/25/2021 12:38:54 AM 0,0 C 83.2%
2/25/2021 12:31:52 AM 0,1 C 82.3%
2/25/2021 12:24:51 AM 0,5 C 81.8%
2/25/2021 12:17:49 AM 0,7 C 81.7%
2/25/2021 12:10:47 AM 0,7 C 82.0%
2/25/2021 12:03:47 AM 0,6 C 82.6%